DECAYED

STARLINK-1780, 46684 (Decayed)

Orbit data source: Space-Track

STARLINK-1780, 46684 was a payload satellite owned by SpaceX/Seattle (US) in LEO that was launched on Sun, 18 Oct 2020 UTC via an FALCON 9 launch vehicle from the Air Force Eastern Test Range (AFETR). Payload-class satellites include a variety of spacecraft equipped with specific instruments for various scientific and technological missions. These include communications satellites like Starlink; space stations such as the ISS; scientific satellites like the Hubble; Earth observation satellites from companies like Planet Labs, Umbra, and HawkEye 360; GPS; miniature CubeSats for education and research; and military/defense satellites.

Not visible in the next 10 days
Identifier
46684, 2020-073Q
Orbit
Decayed
Country
Flag of USUS
Related business
Manufacturer
SpaceX/Seattle
Mission
Decayed Commercial Communications
Bus & Motor
STARLINK, Unknown motor
Mass
260 kg wet, ~248 kg dry
Launch date (UTC)
2020-10-18 (5 years ago)
Launch vehicle
FALCON 9
Launch site
Air Force Eastern Test Range (AFETR)
Object type
Payload
Rocket body
Debris
Shape & HBR
Box + 1 Pan, 10.1 m
Radar Cross Section
13.562 m², Large (>1 m²)

Expand to show TLE details & history
Last TLE update: 8 months ago

TLE from 8 months ago
0 STARLINK-1780
1 46684U 20073Q   25048.33734924  .21413134  12560-4  55689-3 0  9997
2 46684  53.0188 132.4030 0002651 323.8170 113.0914 16.45837126240071
Epoch: 2025-02-17T08:05Z
TLE epoch observation values (Epoch: 2025-02-17T08:05:46.974Z)
Latitude
51.24964°
Longitude
-67.717°
Altitude
157.037 km
Speed
7.818 km/s
True Right ascension
13h 25m 08s
True Declination
51° 03' 58"
Sunlit
Object was in full shadow at epoch
Visualization orbit readout
Latitude
Unknown
Longitude
Unknown
Altitude
Unknown
Speed
Unknown
Apparent Right ascension
Unknown
Apparent Declination
Unknown
Sunlit
N/A
Visualization observer readout
Local Sidereal Time
12:38:01
Azimuth
Unknown
Elevation
Unknown
Doppler factor
Unknown
Orbital elements
Apogee altitude
152.344 km
Perigee altitude
148.883 km
Semi-major axis
6,528.751 km
Eccentricity
0.00027
Inclination
53.0188°
RAAN
132.403°
Arg. of periapsis
323.817°
True anomaly
113.11934°
Mean anomaly
113.0914°
Eccentric anomaly
113.10537°
Mean motion
4.11432 °/min
Orbital period
87.5 mins
BSTAR
0.00055689
Loading maneuver chart data...
Computing Atmospheric mass density...

Documentation

Showing up to 5 results
|